[[{"header":{"parameterUnit":"m.s-1","parameterCategory":1,"la1":30.2992,"la2":30.254,"lo1":-89.0895,"lo2":-89.0443,"dy":0.0025,"dx":0.0025,"nx":19,"ny":19,"refTime":"2026-03-10T09:00:00:Z","depth":0,"parameterNumber":2,"parameterNumberName":"U-component_of_WINDS"},"data":[0,0,0,-0.3327,-0.3326,-0.3282,-0.3282,-0.3224,-0.3224,0,0,0,0,0,0,0,0,0,0,0,-0.334,-0.334,-0.3327,-0.3326,-0.3282,-0.3282,-0.3225,-0.3224,0,0,0,0,0,0,0,0,0,0,0,-0.3341,-0.334,-0.334,-0.3326,-0.3282,-0.3282,-0.3225,-0.3258,0,0,0,0,0,0,0,0,0,0,-0.3301,-0.3314,-0.334,-0.334,-0.3326,-0.3282,-0.3282,-0.326,-0.3256,-0.3244,0,-0.3235,0,-0.3229,-0.322,-0.322,0,0,0,-0.3326,-0.3317,-0.3305,-0.334,-0.3325,-0.3282,-0.3302,-0.3258,-0.3253,-0.3239,-0.3234,-0.3232,-0.3228,-0.322,-0.3219,-0.3156,-0.3155,0,0,-0.3328,-0.3332,-0.3308,-0.3302,-0.331,-0.3303,-0.33,-0.3255,-0.3249,-0.3234,-0.3231,-0.3227,-0.3219,-0.3219,-0.3156,-0.3156,0,0,0,-0.3335,-0.3334,-0.3323,-0.3305,-0.3297,-0.3302,-0.3299,-0.3251,-0.3247,-0.323,-0.3226,-0.3219,-0.3218,-0.3156,-0.3156,-0.3147,0,0,0,-0.3337,-0.3339,-0.3324,-0.3327,-0.3298,-0.3274,-0.3296,-0.325,-0.3245,-0.3226,-0.3219,-0.3218,-0.3157,-0.3156,-0.3148,-0.3141,0,0,0,-0.3343,-0.3339,-0.3333,-0.3327,-0.3308,-0.3274,-0.3268,-0.3249,-0.3243,-0.322,-0.3218,-0.3157,-0.3156,-0.3148,-0.3143,-0.3125,0,0,0,-0.3351,-0.3325,-0.3333,-0.3303,-0.3309,-0.3269,-0.3268,-0.3238,-0.3218,-0.3219,-0.3157,-0.3156,-0.3149,-0.3143,-0.3126,-0.3111,-0.3106,0,0,-0.3321,-0.3322,-0.3304,-0.3309,-0.327,-0.3276,-0.3234,-0.3211,-0.3204,-0.3172,-0.317,-0.3147,-0.3143,-0.3126,-0.3074,-0.307,0,0,0,-0.3296,-0.3283,-0.3271,-0.3252,-0.3234,-0.3218,-0.32,-0.3191,-0.3164,-0.3189,-0.3137,-0.3134,-0.3123,-0.3116,-0.3112,-0.3103,-0.3153,-0.3153,-0.3153,-0.326,-0.3253,-0.3222,-0.321,-0.3191,-0.3174,-0.3157,-0.3142,-0.3141,-0.3128,-0.3119,-0.3088,-0.308,-0.3077,-0.3067,-0.3111,-0.3111,-0.3111,-0.3111,-0.3215,-0.3195,-0.3193,-0.3163,-0.3156,-0.313,-0.3111,-0.3111,-0.3085,-0.3095,-0.3086,-0.3097,-0.3072,-0.3063,-0.311,-0.311,-0.311,-0.311,-0.311,-0.319,-0.3179,-0.3169,-0.314,-0.3119,-0.3107,-0.3082,-0.3077,-0.3071,-0.3062,-0.305,-0.305,-0.3049,-0.3057,-0.3057,-0.3057,-0.3057,-0.3057,-0.3056,-0.3167,-0.3157,-0.3137,-0.3115,-0.3102,-0.3084,-0.3065,-0.3052,-0.3035,-0.3032,-0.3032,-0.3031,-0.3072,-0.3082,-0.3055,-0.3055,-0.3055,-0.3055,-0.3056,-0.3123,-0.3132,-0.3102,-0.3088,-0.3062,-0.3041,-0.3034,-0.3007,-0.2994,-0.2982,-0.2983,-0.3014,-0.3014,-0.3017,-0.3025,-0.2986,-0.2986,-0.2986,-0.2986,-0.3102,-0.3101,-0.3068,-0.3047,-0.3026,-0.3017,-0.2981,-0.2966,-0.2952,-0.2944,-0.2949,-0.296,-0.2963,-0.2961,-0.2965,-0.2972,-0.292,-0.292,-0.292,-0.3074,-0.3071,-0.3042,-0.3029,-0.3008,-0.299,-0.2956,-0.2931,-0.2917,-0.2917,-0.2937,-0.294,-0.2957,-0.2963,-0.2963,-0.2969,-0.2982,0,0]},{"header":{"parameterUnit":"m.s-1","parameterCategory":1,"la1":30.2992,"la2":30.254,"lo1":-89.0895,"lo2":-89.0443,"dy":0.0025,"dx":0.0025,"nx":19,"ny":19,"refTime":"2026-03-10T09:00:00:Z","depth":0,"parameterNumber":3,"parameterNumberName":"V-component_of_WINDS"},"data":[0,0,0,3.8818,3.8821,3.8945,3.8946,3.9103,3.9104,0,0,0,0,0,0,0,0,0,0,0,3.8781,3.8782,3.8818,3.8821,3.8945,3.8946,3.9102,3.9104,0,0,0,0,0,0,0,0,0,0,0,3.8781,3.8782,3.8783,3.8822,3.8945,3.8946,3.9102,3.9009,0,0,0,0,0,0,0,0,0,0,3.8888,3.8854,3.8782,3.8783,3.8822,3.8945,3.8946,3.9004,3.9014,3.9046,0,3.9074,0,3.9092,3.9114,3.9115,0,0,0,3.8821,3.8845,3.8879,3.8783,3.8823,3.8945,3.8889,3.901,3.9022,3.9059,3.9077,3.9083,3.9094,3.9115,3.9116,3.9302,3.9303,0,0,3.8814,3.8803,3.8871,3.8887,3.8869,3.8885,3.8893,3.9017,3.9035,3.9077,3.9086,3.9097,3.9116,3.9118,3.9301,3.9302,0,0,0,3.8794,3.8798,3.8829,3.888,3.8903,3.8889,3.8898,3.9029,3.904,3.9088,3.9099,3.9117,3.9119,3.93,3.9302,3.9338,0,0,0,3.879,3.8787,3.8826,3.8821,3.8901,3.8968,3.8907,3.9032,3.9046,3.9098,3.9117,3.9121,3.9299,3.9301,3.9335,3.9357,0,0,0,3.8773,3.8785,3.8803,3.882,3.8873,3.8966,3.8984,3.9035,3.9053,3.9115,3.9121,3.9299,3.9301,3.9332,3.9353,3.9406,0,0,0,3.8751,3.883,3.8803,3.8896,3.8872,3.8987,3.8984,3.9069,3.9127,3.9118,3.93,3.9302,3.9331,3.935,3.9403,3.9451,3.9469,0,0,3.8845,3.8841,3.8897,3.8876,3.8994,3.8969,3.9092,3.9153,3.9167,3.9256,3.9261,3.9336,3.9352,3.9405,3.957,3.9584,0,0,0,3.8923,3.8963,3.8996,3.9052,3.9102,3.9148,3.9192,3.9215,3.9292,3.9211,3.9368,3.9378,3.9409,3.9433,3.9446,3.9475,3.9311,3.9311,3.9311,3.9041,3.9058,3.9152,3.9184,3.9237,3.9283,3.9329,3.9368,3.9366,3.9403,3.943,3.9528,3.9555,3.9565,3.9595,3.9454,3.9454,3.9454,3.9454,3.9183,3.9244,3.9242,3.9334,3.935,3.9426,3.9473,3.947,3.9544,3.9508,3.9536,3.9499,3.958,3.9608,3.9457,3.9457,3.9456,3.9456,3.9456,3.9265,3.9298,3.9326,3.941,3.9472,3.95,3.9572,3.9583,3.9594,3.9622,3.9654,3.9654,3.9657,3.9636,3.9636,3.9636,3.9637,3.9637,3.9637,3.9341,3.9371,3.9432,3.9493,3.9532,3.9584,3.9631,3.9669,3.9714,3.9717,3.9717,3.9714,3.9584,3.9553,3.9643,3.9642,3.9641,3.964,3.964,3.9485,3.9455,3.9548,3.9587,3.9662,3.9725,3.9737,3.9814,3.9846,3.9882,3.9873,3.9773,3.977,3.976,3.9735,3.9867,3.9867,3.9867,3.9867,3.9557,3.9556,3.9656,3.9718,3.978,3.9802,3.9908,3.9945,3.9979,4.0001,3.9982,3.9949,3.9938,3.9941,3.9928,3.9905,4.0076,4.0076,4.0077,3.9649,3.9655,3.9743,3.9778,3.9837,3.9888,3.9989,4.006,4.0091,4.0085,4.0019,4.001,3.9956,3.9936,3.9932,3.991,3.9868,0,0]}]]